User: anonymous
Location: Irma
(52.9170°N, 111.2330°W)
Time: 13:26:08
(UTC-06:00)
Language:

Cosmos 2279 Rocket - Orbit

View from above orbital plane
View from above orbital plane
View from above satellite
View from above satellite

Ground track
Ground track

The orbit data is extracted from the following two-line orbital elements,

1 23093U 94024B   14104.80473324  .00000088  00000-0  73178-4 0  8330
2 23093 082.9466 256.6656 0010064 021.8172 338.3413 13.77612460471804
Epoch (UTC): 14 April 2014 19:18:48
Eccentricity: 0.0010064
inclination: 82.9466°
perigee height: 965 km
apogee height: 980 km
right ascension of ascending node: 256.6656°
argument of perigee: 21.8172°
revolutions per day: 13.77612460
mean anomaly at epoch: 338.3413°
orbit number at epoch: 47180

The dashed part of the orbit path shows where the satellite is in the earth's shadow,  

DLR